This is the latest recevied weather packets stored in our database for station/object AI5KP-13. If no packets are shown the sender has not sent any weather packets the latest 10 day(s).
| Time | Temp. | Humidity | Pressure | Rain* | Wind** | Luminosity | Snow |
|---|---|---|---|---|---|---|---|
| 1777928271 | 25° C | 51% | 1006.2 hPa | 0 mm | - | 431 W/m² | - |
| 1777927969 | 25.56° C | 51% | 1006.3 hPa | 0 mm | - | 434 W/m² | - |
| 1777927667 | 25.56° C | 52% | 1006.5 hPa | 0 mm | - | 503 W/m² | - |
| 1777927365 | 25.56° C | 51% | 1006.2 hPa | 0 mm | - | 461 W/m² | - |
| 1777927064 | 25° C | 53% | 1006.7 hPa | 0 mm | - | 483 W/m² | - |
| 1777926761 | 25° C | 50% | 1006.7 hPa | 0 mm | - | 510 W/m² | - |
| 1777926461 | 25° C | 50% | 1006.8 hPa | 0 mm | - | 505 W/m² | - |
| 1777926158 | 25° C | 51% | 1007 hPa | 0 mm | - | 478 W/m² | - |
| 1777925855 | 25° C | 49% | 1007.2 hPa | 0 mm | - | 506 W/m² | - |
| 1777925552 | 25° C | 52% | 1007.1 hPa | 0 mm | - | 515 W/m² | - |
| 1777925250 | 25° C | 50% | 1007.3 hPa | 0 mm | - | 532 W/m² | - |
| 1777924946 | 25° C | 53% | 1007.2 hPa | 0 mm | - | 524 W/m² | - |
| 1777924642 | 25° C | 51% | 1007.4 hPa | 0 mm | - | 577 W/m² | - |
| 1777924338 | 25° C | 50% | 1007.5 hPa | 0 mm | - | 585 W/m² | - |
| 1777924036 | 25° C | 50% | 1007.7 hPa | 0 mm | - | 614 W/m² | - |
| 1777923732 | 25° C | 52% | 1007.7 hPa | 0 mm | - | 629 W/m² | - |
| 1777923428 | 24.44° C | 53% | 1007.4 hPa | 0 mm | - | 616 W/m² | - |
| 1777923126 | 25° C | 54% | 1007.9 hPa | 0 mm | - | 611 W/m² | - |
| 1777922824 | 24.44° C | 52% | 1007.8 hPa | 0 mm | - | 624 W/m² | - |
| 1777922521 | 25° C | 53% | 1008.1 hPa | 0 mm | - | 654 W/m² | - |
| 1777922220 | 24.44° C | 54% | 1008 hPa | 0 mm | - | 614 W/m² | - |
| 1777921916 | 25° C | 53% | 1008.2 hPa | 0 mm | - | 699 W/m² | - |
| 1777921612 | 24.44° C | 53% | 1008.2 hPa | 0 mm | - | 699 W/m² | - |
| 1777921309 | 24.44° C | 52% | 1008 hPa | 0 mm | - | 697 W/m² | - |
| 1777921005 | 25° C | 52% | 1008 hPa | 0 mm | - | 701 W/m² | - |
* Rain latest hour (hover to see other rain measurements)
** Current wind speed in m/s (hover to see current wind gust speed)